Location: Nairn
(57.5833°N, 3.8667°W)
Time: 16:13:50
(UTC+00:00)

Nadezhda 4 Rocket - Pass Details

Date: 07 August 2020
Orbit: 949 x 993 km, 82.9° (Epoch: 22 September)

Event Time Altitude Azimuth Distance (km) Brightness Sun altitude
Rises 00:21:47 0° 347° (NNW) 3,722 8.7 -16.1°
Reaches altitude 10° 00:24:22 10° 351° (N) 2,766 7.7 -16.1°
Maximum altitude 00:30:41 66° 73° (ENE) 1,076 4.3 -16.1°
Enters shadow 00:35:22 19° 152° (SSE) 2,173 5.3 -16.0°
